| time (UTC) | temp F | wind direction | speed MPH | gust MPH | rain 1hr in | rain 24hr in | rain mn in | humidity % | barometer mb |
| 20260509040024 | 58 | 89 | 0.0 | 0.0 | 0.01 | 0.02 | 0.02 | 91 | 1013.3 |
| 20260509034527 | 59 | 89 | 0.0 | 0.0 | 0.00 | 0.01 | 0.01 | 90 | 1013.1 |
| 20260509033010 | 59 | 89 | 0.0 | 0.0 | 0.00 | 0.01 | 0.01 | 89 | 1012.8 |
| 20260509031505 | 60 | 89 | 0.0 | 0.0 | 0.00 | 0.01 | 0.01 | 89 | 1012.4 |
| 20260509030005 | 60 | 89 | 0.0 | 0.0 | 0.00 | 0.01 | 0.01 | 88 | 1012.5 |
| 20260509024506 | 61 | 89 | 0.0 | 0.0 | 0.00 | 0.01 | 0.01 | 88 | 1012.6 |
| 20260509023005 | 60 | 89 | 0.0 | 0.0 | 0.00 | 0.01 | 0.01 | 88 | 1012.8 |
| 20260509021533 | 60 | 89 | 0.0 | 0.0 | 0.00 | 0.01 | 0.01 | 87 | 1012.9 |
| 20260509020017 | 61 | 89 | 0.0 | 0.0 | 0.00 | 0.01 | 0.01 | 87 | 1012.9 |
| 20260509014512 | 61 | 89 | 0.0 | 0.0 | 0.00 | 0.01 | 0.01 | 86 | 1013.1 |
| 20260509013016 | 61 | 89 | 0.0 | 0.0 | 0.00 | 0.01 | 0.01 | 86 | 1012.7 |
| 20260509004516 | 64 | 89 | 0.0 | 2.0 | 0.00 | 0.01 | 0.01 | 80 | 1013.1 |
| 20260509003008 | 64 | 89 | 0.0 | 0.0 | 0.00 | 0.01 | 0.01 | 80 | 1012.9 |
| 20260509001510 | 64 | 89 | 0.0 | 0.0 | 0.00 | 0.01 | 0.01 | 78 | 1013.2 |
| 20260508233014 | 65 | 115 | 0.0 | 2.0 | 0.00 | 0.02 | 0.01 | 74 | 1013.0 |
| 20260508231510 | 66 | 126 | 1.0 | 3.0 | 0.00 | 0.02 | 0.01 | 73 | 1013.0 |
| 20260508230012 | 66 | 111 | 0.0 | 8.0 | 0.00 | 0.02 | 0.01 | 72 | 1013.0 |
| 20260508221510 | 66 | 73 | 0.0 | 2.0 | 0.00 | 0.02 | 0.01 | 71 | 1014.0 |
| 20260508220015 | 67 | 17 | 0.0 | 6.0 | 0.00 | 0.02 | 0.01 | 68 | 1014.2 |
| 20260508214524 | 67 | 36 | 0.0 | 7.0 | 0.00 | 0.02 | 0.01 | 69 | 1014.0 |
| 20260508213015 | 67 | 176 | 1.0 | 6.0 | 0.00 | 0.02 | 0.01 | 69 | 1014.1 |
| 20260508211532 | 66 | 120 | 1.0 | 3.0 | 0.00 | 0.02 | 0.01 | 69 | 1014.2 |
| 20260508210014 | 67 | 150 | 0.0 | 4.0 | 0.00 | 0.02 | 0.01 | 69 | 1014.6 |
| 20260508204513 | 67 | 128 | 1.0 | 3.0 | 0.00 | 0.02 | 0.01 | 64 | 1014.7 |
| 20260508203014 | 67 | 113 | 0.0 | 4.0 | 0.00 | 0.02 | 0.01 | 65 | 1014.7 |
| 20260508201516 | 68 | 326 | 0.0 | 3.0 | 0.00 | 0.02 | 0.01 | 64 | 1014.5 |
| 20260508200015 | 68 | 125 | 0.0 | 3.0 | 0.00 | 0.02 | 0.01 | 61 | 1014.5 |
| 20260508194526 | 69 | 30 | 1.0 | 4.0 | 0.00 | 0.02 | 0.01 | 61 | 1014.6 |
| 20260508193014 | 68 | 153 | 1.0 | 6.0 | 0.00 | 0.02 | 0.01 | 59 | 1014.7 |
| 20260508191523 | 69 | 101 | 1.0 | 3.0 | 0.00 | 0.02 | 0.01 | 57 | 1015.2 |
| 20260508190016 | 69 | 95 | 1.0 | 4.0 | 0.00 | 0.02 | 0.01 | 58 | 1015.2 |
| 20260508184518 | 69 | 117 | 1.0 | 3.0 | 0.00 | 0.02 | 0.01 | 57 | 1015.5 |
| 20260508183024 | 67 | 183 | 0.0 | 4.0 | 0.00 | 0.02 | 0.01 | 60 | 1015.6 |
| 20260508181516 | 68 | 140 | 1.0 | 4.0 | 0.00 | 0.02 | 0.01 | 58 | 1015.6 |
| 20260508180018 | 68 | 184 | 0.0 | 6.0 | 0.00 | 0.02 | 0.01 | 61 | 1016.0 |
| 20260508174516 | 68 | 100 | 1.0 | 2.0 | 0.00 | 0.02 | 0.01 | 59 | 1015.8 |
| 20260508173017 | 67 | 120 | 1.0 | 3.0 | 0.00 | 0.02 | 0.01 | 57 | 1016.2 |
| 20260508171518 | 68 | 150 | 1.0 | 4.0 | 0.00 | 0.02 | 0.01 | 56 | 1016.0 |
| 20260508170005 | 68 | 91 | 1.0 | 3.0 | 0.00 | 0.02 | 0.01 | 57 | 1016.6 |
| 20260508164512 | 68 | 306 | 0.0 | 3.0 | 0.00 | 0.02 | 0.01 | 59 | 1016.8 |
| 20260508163019 | 68 | 176 | 0.0 | 4.0 | 0.00 | 0.02 | 0.01 | 56 | 1016.7 |
| 20260508161520 | 68 | 173 | 0.0 | 2.0 | 0.00 | 0.02 | 0.01 | 55 | 1017.5 |
| 20260508160018 | 68 | 140 | 1.0 | 4.0 | 0.00 | 0.02 | 0.01 | 54 | 1017.5 |
| 20260508153015 | 68 | 137 | 1.0 | 2.0 | 0.00 | 0.02 | 0.01 | 60 | 1017.9 |
| 20260508151518 | 68 | 331 | 0.0 | 3.0 | 0.00 | 0.02 | 0.01 | 58 | 1017.7 |
| 20260508150019 | 67 | 127 | 1.0 | 4.0 | 0.00 | 0.02 | 0.01 | 61 | 1017.8 |
| 20260508144505 | 66 | 73 | 1.0 | 3.0 | 0.01 | 0.02 | 0.01 | 62 | 1017.8 |
| 20260508143010 | 64 | 165 | 0.0 | 5.0 | 0.01 | 0.02 | 0.01 | 65 | 1017.9 |
| 20260508140021 | 62 | 263 | 1.0 | 2.0 | 0.01 | 0.02 | 0.01 | 71 | 1018.1 |
| 20260508134521 | 61 | 309 | 0.0 | 5.0 | 0.00 | 0.02 | 0.00 | 76 | 1018.2 |
| 20260508133009 | 59 | 5 | 1.0 | 3.0 | 0.00 | 0.02 | 0.00 | 77 | 1018.3 |
| 20260508130017 | 56 | 9 | 1.0 | 3.0 | 0.00 | 0.02 | 0.00 | 84 | 1018.2 |
| 20260508124524 | 56 | 313 | 0.0 | 2.0 | 0.00 | 0.02 | 0.00 | 88 | 1018.2 |
| 20260508123042 | 54 | 333 | 0.0 | 1.0 | 0.00 | 0.02 | 0.00 | 93 | 1018.2 |
| 20260508121518 | 53 | 333 | 0.0 | 0.0 | 0.00 | 0.02 | 0.00 | 93 | 1018.5 |
| 20260508120017 | 52 | 333 | 0.0 | 0.0 | 0.00 | 0.02 | 0.00 | 94 | 1018.5 |
| 20260508114520 | 51 | 333 | 0.0 | 0.0 | 0.00 | 0.02 | 0.00 | 93 | 1018.2 |
| 20260508113024 | 51 | 333 | 0.0 | 0.0 | 0.00 | 0.02 | 0.00 | 93 | 1017.8 |
| 20260508111532 | 51 | 333 | 0.0 | 0.0 | 0.00 | 0.02 | 0.00 | 93 | 1017.3 |
| 20260508110014 | 51 | 333 | 0.0 | 0.0 | 0.00 | 0.02 | 0.00 | 93 | 1017.0 |
| 20260508104516 | 52 | 333 | 0.0 | 0.0 | 0.00 | 0.02 | 0.00 | 93 | 1017.1 |
| 20260508103028 | 52 | 333 | 0.0 | 0.0 | 0.00 | 0.02 | 0.00 | 93 | 1016.8 |
| 20260508101524 | 52 | 333 | 0.0 | 0.0 | 0.00 | 0.02 | 0.00 | 93 | 1016.8 |
| 20260508100009 | 52 | 333 | 0.0 | 0.0 | 0.00 | 0.02 | 0.00 | 93 | 1016.6 |
| 20260508094514 | 52 | 333 | 0.0 | 0.0 | 0.00 | 0.02 | 0.00 | 93 | 1016.8 |
| 20260508093020 | 52 | 333 | 0.0 | 0.0 | 0.00 | 0.02 | 0.00 | 93 | 1016.5 |
| 20260508091522 | 52 | 333 | 0.0 | 0.0 | 0.00 | 0.02 | 0.00 | 93 | 1016.6 |
| 20260508090044 | 52 | 333 | 0.0 | 0.0 | 0.00 | 0.02 | 0.00 | 93 | 1016.2 |
| 20260508084511 | 53 | 333 | 0.0 | 0.0 | 0.00 | 0.02 | 0.00 | 93 | 1016.0 |
| 20260508083017 | 53 | 333 | 0.0 | 0.0 | 0.00 | 0.02 | 0.00 | 93 | 1015.7 |
| 20260508081524 | 53 | 333 | 0.0 | 0.0 | 0.00 | 0.02 | 0.00 | 93 | 1015.4 |
| 20260508080004 | 53 | 333 | 0.0 | 0.0 | 0.00 | 0.02 | 0.00 | 93 | 1015.8 |
| 20260508074510 | 53 | 333 | 0.0 | 0.0 | 0.00 | 0.02 | 0.00 | 92 | 1015.7 |
| 20260508073015 | 53 | 333 | 0.0 | 1.0 | 0.00 | 0.02 | 0.00 | 93 | 1015.6 |
| 20260508071517 | 53 | 333 | 0.0 | 0.0 | 0.00 | 0.02 | 0.00 | 92 | 1015.7 |
| 20260508070008 | 54 | 333 | 0.0 | 0.0 | 0.00 | 0.02 | 0.00 | 92 | 1016.0 |
| 20260508064509 | 54 | 333 | 0.0 | 2.0 | 0.00 | 0.02 | 0.00 | 92 | 1016.2 |
| 20260508063013 | 54 | 333 | 0.0 | 0.0 | 0.00 | 0.02 | 0.00 | 92 | 1016.2 |
| 20260508061517 | 54 | 333 | 0.0 | 0.0 | 0.00 | 0.02 | 0.00 | 92 | 1016.4 |
| 20260508060007 | 55 | 333 | 0.0 | 0.0 | 0.00 | 0.02 | 0.00 | 92 | 1016.3 |
| 20260508054509 | 55 | 333 | 0.0 | 2.0 | 0.00 | 0.02 | 0.00 | 92 | 1016.5 |
| 20260508053011 | 55 | 333 | 0.0 | 0.0 | 0.00 | 0.02 | 0.00 | 91 | 1016.4 |
| 20260508051516 | 55 | 333 | 0.0 | 0.0 | 0.00 | 0.02 | 0.00 | 91 | 1016.4 |
| 20260508050020 | 55 | 333 | 0.0 | 0.0 | 0.00 | 0.02 | 0.00 | 91 | 1016.5 |
| 20260508044507 | 55 | 333 | 0.0 | 0.0 | 0.00 | 0.03 | 0.02 | 91 | 1016.5 |
| 20260508043008 | 55 | 333 | 0.0 | 0.0 | 0.00 | 0.03 | 0.02 | 90 | 1016.6 |
| 20260508041514 | 55 | 333 | 0.0 | 0.0 | 0.00 | 0.03 | 0.02 | 90 | 1016.7 |